Regional Weather Roundup
Issued by NWS Austin/San Antonio, TX

Home | Current Version | Previous Version | Text Only | Print | Product List | Glossary On
Versions: 1 2 3 4 5 6 7 8 9 10 11 12 13 14 15 16 17 18 19 20 21 22 23 24 25 26 27 28 29 30 31 32 33 34 35 36 37 38 39 40 41 42 43 44 45 46 47 48 49 50
000
ASUS44 KEWX 132301
RWREWX
SOUTH TEXAS REGIONAL WEATHER ROUNDUP
NATIONAL WEATHER SERVICE AUSTIN/SAN ANTONIO TX
500 PM CST WED DEC 13 2017

NOTE: "FAIR" INDICATED FEW OR NO CLOUDS BELOW 12,000 FEET WITH NO
SIGNIFICANT WEATHER AND/OR OBSTRUCTIONS TO VISIBILITY.

* - THESE STATIONS ARE NOT NWS OR FAA STATIONS...AND ARE NOT SUBJECT
    TO NWS AND FAA QUALITY CONTROL.

TXZ171-172-183>190-140000-
TEXAS HILL COUNTRY AND EDWARDS PLATEAU

CITY           SKY/WX    TMP DP  RH WIND       PRES   REMARKS
JUNCTION       CLOUDY    59  29  31 W5        29.98F
*LLANO         CLOUDY    64  30  27 SW8       29.98F
BURNET         CLOUDY    61  33  35 S8        29.98F
*HORSESHOE BAY CLOUDY    61  33  34 S3        29.97F
*KERRVILLE     CLOUDY    56  31  38 S5        30.00F
*FREDERICKSBRG CLOUDY    56  29  35 SW9       29.99F
*ROCKSPRINGS   NOT AVBL
*BOERNE STAGE  PTCLDY    54  34  47 CALM      30.02F
*CASTROVILLE   PTCLDY    58  34  40 SW5       30.03F
HONDO          CLOUDY    60  36  40 SW7       30.02F
*UVALDE        CLOUDY    56  39  52 S5        30.03F
DEL RIO        CLOUDY    57  37  47 SE7       30.00F
LAUGHLIN AFB   MOCLDY    57  37  46 SE6       30.00F
CARRIZO SPRGS  MOCLDY    59  43  55 CALM      30.01F
*EAGLE PASS    CLEAR     57  39  51 CALM      30.01F
$$

TXZ173-191>194-202-209-217>225-228-140000-
CENTRAL AND SOUTH CENTRAL TEXAS

CITY           SKY/WX    TMP DP  RH WIND       PRES   REMARKS
GEORGETOWN     CLOUDY    60  36  40 S8        29.99S
AUSTIN/BERGSTM CLOUDY    58  35  42 SW10      29.99F
AUSTIN/MABRY   CLOUDY    59  34  39 VRB6      30.00F
*AUSTIN/EXEC   CLOUDY    59  32  36 S12       29.99F
*LAGO VISTA    CLOUDY    60  35  39 SW9G17    29.98F
SAN MARCOS     NOT AVBL
NEW BRAUNFELS  PTCLDY    57  35  43 SW7       30.00F
RANDOLPH AFB   PTCLDY    58  33  38 S7        30.01F
PT SAN ANTONIO PTCLDY    59  35  40 S3        29.99F
SAN ANTONIO    MOCLDY    59  34  39 SW6       30.02F
STINSON FIELD  CLOUDY    60  35  39 SW5       30.00F
*LA GRANGE     CLOUDY    58  38  46 CALM      30.00F
*GIDDINGS      CLOUDY    57  34  42 SW6       30.01F
*GONZALES      CLOUDY    58  37  45 SW3       30.02F
$$

TXZ163>164-176>182-195>201-210>213-226-227-235-140000-
SOUTHEAST TEXAS

CITY           SKY/WX    TMP DP  RH WIND       PRES   REMARKS
COLLEGE STN    CLOUDY    56  37  49 S7        30.00F
*BRYAN         CLOUDY    55  34  44 S9        30.00F
*CALDWELL      CLOUDY    55  35  47 S7        30.01S
*CROCKETT        N/A     55  32  41 S6        30.02S
*BRENHAM       CLOUDY    57  35  43 S5        30.02F
HUNTSVILLE     CLOUDY    54  35  48 S7        29.99F
CONROE         CLOUDY    55  35  47 S7        30.02F
HOUSTON BUSH   CLOUDY    56  33  42 S3        30.03F
HOUSTON HOBBY  CLOUDY    55  35  47 SW6       30.03F
*HOUSTON SW AP CLOUDY    55  36  48 CALM      30.04F
PEARLAND       CLOUDY    56  35  45 SW3       30.05F
HOUSTON HOOKS  CLOUDY    55  35  47 SW6       30.03F
ELLINGTON FLD  MOCLDY    59  32  36 SW5       30.06F
SUGAR LAND     CLOUDY    57  36  45 CALM      30.03F
*HOUSTON EXEC  NOT AVBL
*CLEVELAND MUN CLOUDY    50  39  67 CALM      30.04S
*WHARTON       CLOUDY    57  34  41 CALM      30.04F
*COLUMBUS      FAIR      55  34  44 S3        30.04F
*EAGLE LAKE    CLOUDY    56  38  51 SW5       30.03F
$$

TXZ214>216-236>238-140000-
THE UPPER TEXAS COAST

CITY           SKY/WX    TMP DP  RH WIND       PRES   REMARKS
*ORANGE        PTCLDY    56  41  58 W3        30.05S
PORT ARTHUR    PTCLDY    52  39  61 SW5       30.04R
GALVESTON      MOCLDY    59  36  42 SW7       30.05F
ANGLETON       PTCLDY    59  35  40 CALM      30.04F
*BAY CITY      CLOUDY    59  41  51 SW3       30.04F
PALACIOS       CLOUDY    57  43  59 S5        30.04F
$$

TXZ229>234-239>247-140000-
TEXAS COASTAL BEND AND RIO GRANDE PLAINS

CITY           SKY/WX    TMP DP  RH WIND       PRES   REMARKS
VICTORIA       CLOUDY    60  37  42 S6        30.04F
*BEEVILLE      CLOUDY    60  38  44 S5        30.03F
ROCKPORT       MOCLDY    60  44  55 CALM      30.04F
*PORT ARANSAS  NOT AVBL
*PORT LAVACA   CLOUDY    58  43  57 S3        30.05F
*INGLESIDE     MOCLDY    62  46  55 SE5       30.04F
CORPUS CHRISTI CLOUDY    62  50  64 CALM      30.04F
CORPUS NAS     CLOUDY    63  47  55 S5        30.03F
*ROBSTOWN      MOCLDY    63  45  51 SW3       30.05F
ALICE          CLOUDY    62  37  39 SW5       30.04F
KINGSVILLE NAS CLOUDY    64  42  44 S5        30.04F
COTULLA        MOCLDY    61  36  39 S3        30.03F
*FAITH RANCH   CLEAR     59  43  55 SE5       30.01F
LAREDO         MOCLDY    62  38  40 SE6       30.03
$$

TXZ248>255-140000-
DEEP SOUTH TEXAS

CITY           SKY/WX    TMP DP  RH WIND       PRES   REMARKS
BROWNSVILLE    PTCLDY    67  50  54 NE7       30.03F
PORT ISABEL    PTCLDY    63  50  62 E5        30.03F
*SOUTH PADRE   NOT AVBL
HARLINGEN      CLOUDY    65  46  50 SE5       30.03F
*HEBBRONVILLE  CLOUDY    63  29  28 CALM      30.05S
MCALLEN        CLOUDY    64  44  48 SE3       30.04S
*WESLACO       CLOUDY    64  42  45 CALM      30.03S
FALFURRIAS     CLOUDY    65  33  29 CALM      30.03F
EDINBURG       PTCLDY    65  37  34 E3        30.04F
*ZAPATA        PTCLDY    63  34  33 SE3       30.03S
$$

TXZ213>215-236>238-242>244-246-247-251-254-255-140000-
CMAN STATIONS

STATION/POSITION TIME  TEMP    WIND        PRES    WAVE
                       AIR SEA DIR/SP/G            HT/PER
                 (UTC) (F)     (DEG/KT/KT) (MB)    (FT/S)
SABINE PASS      2224   56 59  230/  5/  7 1018.8
NORTH JETTY/GLS  2230      60  200/  9/ 10 1016.7
EAGLE POINT      2230   58 56  270/  2/  3 1017.3
MORGANS POINT    2224   58 57  210/  3/  5 1017.2
PORT O`CONNOR    2230   58 56  200/  3/  4 1017.3
MALAQUITE BEACH  2224   63 63  150/  7/  7 1017.0
BAFFIN BAY       2224   62 58  130/  4/  5 1017.7
PORT ISABEL      2224   63 59   40/  5/  7 1016.8
$$



USA.gov is the U.S. government's official web portal to all federal, state and local government web resources and services.